• In Hungary
  • List of Countries
  • For 7 days
  • Water Temperature
  • Satellite Maps
  • Weather Map
  • News
  • Weather Widgets
  • user-avatar
    Login

    Hourly Weather Vladivostok

    Today, 24 January, Wednesday

    Time Temperature Precipitation Wind Pressure Humidity
    00:00 -29°C° 0 mm 7 mps 754 mmHg 55%
    01:00 -29°C° 0 mm 7 mps 754 mmHg 55%
    02:00 -30°C° 0 mm 7 mps 754 mmHg 55%
    03:00 -30°C° 0 mm 7 mps 754 mmHg 56%
    04:00 -30°C° 0 mm 7 mps 754 mmHg 55%
    05:00 -31°C° 0 mm 7 mps 754 mmHg 55%
    06:00 -31°C° 0 mm 7 mps 755 mmHg 55%
    07:00 -32°C° 0 mm 8 mps 755 mmHg 54%
    08:00 -32°C° 0 mm 8 mps 755 mmHg 53%
    09:00 -32°C° 0 mm 8 mps 755 mmHg 51%
    10:00 -29°C° 0 mm 8 mps 755 mmHg 48%
    11:00 -28°C° 0 mm 8 mps 754 mmHg 45%
    12:00 -27°C° 0 mm 9 mps 754 mmHg 42%
    13:00 -27°C° 0 mm 9 mps 754 mmHg 42%
    14:00 -26°C° 0 mm 9 mps 755 mmHg 42%
    15:00 -26°C° 0 mm 9 mps 755 mmHg 42%
    16:00 -27°C° 0 mm 9 mps 755 mmHg 44%
    17:00 -27°C° 0 mm 9 mps 756 mmHg 46%
    18:00 -28°C° 0 mm 8 mps 757 mmHg 48%
    19:00 -28°C° 0 mm 8 mps 757 mmHg 49%
    20:00 -29°C° 0 mm 8 mps 758 mmHg 50%
    21:00 -29°C° 0 mm 8 mps 758 mmHg 51%
    22:00 -29°C° 0 mm 8 mps 758 mmHg 51%
    23:00 -29°C° 0 mm 8 mps 758 mmHg 52%

    Tomorrow, 25 January, Thursday

    Time Temperature Precipitation Wind Pressure Humidity
    00:00 -30°C° 0 mm 7 mps 759 mmHg 52%
    01:00 -30°C° 0 mm 7 mps 759 mmHg 52%
    02:00 -30°C° 0 mm 7 mps 759 mmHg 52%
    03:00 -30°C° 0 mm 7 mps 759 mmHg 52%
    04:00 -30°C° 0 mm 7 mps 759 mmHg 52%
    05:00 -30°C° 0 mm 7 mps 759 mmHg 52%
    06:00 -31°C° 0 mm 7 mps 759 mmHg 52%
    07:00 -30°C° 0 mm 7 mps 759 mmHg 51%
    08:00 -30°C° 0 mm 7 mps 759 mmHg 50%
    09:00 -30°C° 0 mm 7 mps 759 mmHg 49%
    10:00 -29°C° 0 mm 7 mps 759 mmHg 47%
    11:00 -28°C° 0 mm 8 mps 759 mmHg 44%
    12:00 -27°C° 0 mm 8 mps 758 mmHg 41%
    13:00 -27°C° 0 mm 8 mps 758 mmHg 41%
    14:00 -26°C° 0 mm 8 mps 758 mmHg 41%
    15:00 -26°C° 0 mm 8 mps 757 mmHg 41%
    16:00 -27°C° 0 mm 8 mps 757 mmHg 43%
    17:00 -27°C° 0 mm 8 mps 757 mmHg 45%
    18:00 -28°C° 0 mm 8 mps 757 mmHg 47%
    19:00 -28°C° 0 mm 8 mps 757 mmHg 48%
    20:00 -29°C° 0 mm 8 mps 757 mmHg 50%
    21:00 -29°C° 0 mm 8 mps 757 mmHg 51%
    22:00 -29°C° 0 mm 8 mps 757 mmHg 53%
    23:00 -29°C° 0 mm 7 mps 757 mmHg 54%

    Day after tomorrow, 26 January, Friday

    Time Temperature Precipitation Wind Pressure Humidity
    00:00 -29°C° 0 mm 7 mps 757 mmHg 56%
    01:00 -29°C° 0 mm 7 mps 757 mmHg 57%
    02:00 -29°C° 0 mm 7 mps 757 mmHg 58%
    03:00 -29°C° 0 mm 7 mps 757 mmHg 58%
    04:00 -29°C° 0 mm 7 mps 756 mmHg 59%
    05:00 -29°C° 0 mm 7 mps 756 mmHg 60%
    06:00 -27°C° 0 mm 7 mps 756 mmHg 61%
    07:00 -27°C° 0 mm 7 mps 756 mmHg 59%
    08:00 -27°C° 0 mm 7 mps 757 mmHg 57%
    09:00 -27°C° 0 mm 8 mps 757 mmHg 55%
    10:00 -26°C° 0 mm 8 mps 757 mmHg 50%
    11:00 -23°C° 0 mm 8 mps 756 mmHg 45%
    12:00 -22°C° 0 mm 8 mps 756 mmHg 41%
    13:00 -21°C° 0 mm 8 mps 756 mmHg 39%
    14:00 -19°C° 0 mm 8 mps 756 mmHg 37%
    15:00 -19°C° 0 mm 8 mps 755 mmHg 36%
    16:00 -19°C° 0 mm 7 mps 756 mmHg 38%
    17:00 -20°C° 0 mm 7 mps 756 mmHg 39%
    18:00 -21°C° 0 mm 6 mps 756 mmHg 41%
    19:00 -21°C° 0 mm 6 mps 756 mmHg 41%
    20:00 -21°C° 0 mm 6 mps 756 mmHg 41%
    21:00 -22°C° 0 mm 6 mps 757 mmHg 41%
    22:00 -22°C° 0 mm 6 mps 757 mmHg 41%
    23:00 -23°C° 0 mm 6 mps 757 mmHg 42%

    27 January, Saturday

    Time Temperature Precipitation Wind Pressure Humidity
    00:00 -22°C° 0 mm 5 mps 757 mmHg 42%
    01:00 -22°C° 0 mm 5 mps 757 mmHg 43%
    02:00 -22°C° 0 mm 5 mps 757 mmHg 44%
    03:00 -22°C° 0 mm 5 mps 758 mmHg 45%
    04:00 -22°C° 0 mm 5 mps 758 mmHg 47%
    05:00 -24°C° 0 mm 5 mps 758 mmHg 48%
    06:00 -24°C° 0 mm 5 mps 758 mmHg 49%
    07:00 -22°C° 0 mm 5 mps 758 mmHg 48%
    08:00 -22°C° 0 mm 5 mps 758 mmHg 47%
    09:00 -21°C° 0 mm 5 mps 758 mmHg 46%
    10:00 -20°C° 0 mm 5 mps 758 mmHg 43%
    11:00 -18°C° 0 mm 5 mps 757 mmHg 39%
    12:00 -17°C° 0 mm 5 mps 757 mmHg 36%
    13:00 -17°C° 0 mm 5 mps 756 mmHg 36%
    14:00 -15°C° 0 mm 5 mps 756 mmHg 36%
    15:00 -15°C° 0 mm 5 mps 755 mmHg 36%
    16:00 -15°C° 0 mm 5 mps 755 mmHg 40%
    17:00 -16°C° 0 mm 4 mps 755 mmHg 44%
    18:00 -17°C° 0 mm 4 mps 755 mmHg 48%
    19:00 -18°C° 0 mm 4 mps 756 mmHg 49%
    20:00 -18°C° 0 mm 4 mps 756 mmHg 51%
    21:00 -19°C° 0 mm 4 mps 756 mmHg 53%
    22:00 -19°C° 0 mm 4 mps 756 mmHg 54%
    23:00 -20°C° 0 mm 4 mps 756 mmHg 55%

    28 January, Sunday

    Time Temperature Precipitation Wind Pressure Humidity
    00:00 -20°C° 0 mm 4 mps 756 mmHg 57%
    01:00 -22°C° 0 mm 4 mps 755 mmHg 56%
    02:00 -22°C° 0 mm 4 mps 755 mmHg 55%
    03:00 -22°C° 0 mm 4 mps 755 mmHg 55%
    04:00 -23°C° 0 mm 4 mps 755 mmHg 55%
    05:00 -22°C° 0 mm 3 mps 754 mmHg 55%
    06:00 -22°C° 0 mm 3 mps 754 mmHg 56%
    07:00 -23°C° 0 mm 4 mps 754 mmHg 53%
    08:00 -22°C° 0 mm 4 mps 754 mmHg 51%
    09:00 -22°C° 0 mm 5 mps 754 mmHg 48%
    10:00 -21°C° 0 mm 5 mps 754 mmHg 45%
    11:00 -21°C° 0 mm 6 mps 753 mmHg 42%
    12:00 -20°C° 0 mm 6 mps 753 mmHg 39%
    13:00 -20°C° 0 mm 6 mps 753 mmHg 39%
    14:00 -18°C° 0 mm 6 mps 753 mmHg 39%
    15:00 -18°C° 0 mm 6 mps 753 mmHg 38%
    16:00 -18°C° 0 mm 5 mps 753 mmHg 42%
    17:00 -19°C° 0 mm 5 mps 753 mmHg 46%
    18:00 -20°C° 0 mm 5 mps 754 mmHg 50%
    19:00 -20°C° 0 mm 5 mps 754 mmHg 52%
    20:00 -20°C° 0 mm 5 mps 755 mmHg 53%
    21:00 -20°C° 0 mm 5 mps 755 mmHg 55%
    22:00 -20°C° 0 mm 4 mps 755 mmHg 56%
    23:00 -20°C° 0 mm 4 mps 755 mmHg 58%

    29 January, Monday

    Time Temperature Precipitation Wind Pressure Humidity
    00:00 -20°C° 0 mm 4 mps 755 mmHg 59%
    01:00 -20°C° 0 mm 4 mps 755 mmHg 61%
    02:00 -19°C° 0 mm 3 mps 755 mmHg 62%
    03:00 -19°C° 0 mm 3 mps 755 mmHg 64%
    04:00 -19°C° 0 mm 3 mps 755 mmHg 64%
    05:00 -19°C° 0 mm 3 mps 755 mmHg 65%
    06:00 -21°C° 0 mm 3 mps 755 mmHg 65%
    07:00 -19°C° 0 mm 3 mps 755 mmHg 63%
    08:00 -18°C° 0 mm 3 mps 755 mmHg 62%
    09:00 -18°C° 0 mm 3 mps 755 mmHg 60%
    10:00 -17°C° 0 mm 4 mps 755 mmHg 54%
    11:00 -16°C° 0 mm 4 mps 754 mmHg 49%
    12:00 -14°C° 0 mm 4 mps 754 mmHg 44%
    13:00 -14°C° 0 mm 5 mps 754 mmHg 42%
    14:00 -13°C° 0 mm 5 mps 753 mmHg 41%
    15:00 -12°C° 0 mm 5 mps 753 mmHg 40%
    16:00 -12°C° 0 mm 4 mps 753 mmHg 44%
    17:00 -14°C° 0 mm 4 mps 753 mmHg 48%
    18:00 -15°C° 0 mm 4 mps 753 mmHg 53%
    19:00 -16°C° 0 mm 4 mps 753 mmHg 55%
    20:00 -16°C° 0 mm 4 mps 753 mmHg 58%
    21:00 -17°C° 0 mm 4 mps 753 mmHg 60%
    22:00 -17°C° 0 mm 4 mps 752 mmHg 62%
    23:00 -17°C° 0 mm 4 mps 752 mmHg 63%
    Show more